Location: Berg
(47.2344°N, 9.5296°E)
Time: 22:29:22
(UTC+00:00)

Cosmos 1939 Rocket - Pass Details

Date: 24 January 2021
Orbit: 531 x 585 km, 97.4° (Epoch: 03 March)

Event Time Altitude Azimuth Distance (km) Brightness Sun altitude
Rises 17:31:44 0° 176° (S) 2,788 6.5 -13.5°
Reaches altitude 10° 17:33:55 10° 180° (S) 1,889 5.7 -13.8°
Maximum altitude 17:37:58 58° 260° (W) 677 3.6 -14.5°
Drops below altitude 10° 17:41:59 10° 340° (NNW) 1,879 5.6 -15.2°
Sets 17:44:09 0° 344° (NNW) 2,772 6.5 -15.5°
